Location: Kapla
(46.2483°N, 15.0094°E)
Time: 18:39:48
(UTC+00:00)

COSMOS 2428 - Pass Details

Date: 03 March 2021
Orbit: 845 x 858 km, 70.9° (Epoch: 16 April)

Event Time Altitude Azimuth Distance (km) Brightness Sun altitude
Rises 19:16:47 0° 202° (SSW) 3,391 5.9 -26.0°
Reaches altitude 10° 19:19:13 10° 202° (SSW) 2,461 5.1 -26.4°
Enters shadow 19:24:46 84° 148° (SSE) 858 2.5 -27.3°
Exits shadow 19:32:03 - 28° (NNE) 3,038 5.5 -28.5°
Sets 19:33:03 0° 28° (NNE) 3,423 5.8 -28.6°
